TimePST,TemperatureF,Dew PointF,Humidity,Sea Level PressureIn,VisibilityMPH,Wind Direction,Wind SpeedMPH,Gust SpeedMPH,PrecipitationIn,Events,Conditions,WindDirDegrees,DateUTC
12:56 AM,36.0,15.1,43,30.03,10.0,Calm,Calm,-,N/A,,Clear,0,2012-12-09 08:56:00
1:56 AM,37.0,18.0,46,30.02,10.0,Calm,Calm,-,N/A,,Clear,0,2012-12-09 09:56:00
2:56 AM,35.1,17.1,48,30.02,10.0,Calm,Calm,-,N/A,,Clear,0,2012-12-09 10:56:00
3:56 AM,30.0,14.0,51,30.04,10.0,Calm,Calm,-,N/A,,Clear,0,2012-12-09 11:56:00
4:56 AM,32.0,15.1,50,30.06,10.0,Calm,Calm,-,N/A,,Clear,0,2012-12-09 12:56:00
5:56 AM,28.9,12.0,49,30.10,10.0,Calm,Calm,-,N/A,,Clear,0,2012-12-09 13:56:00
6:56 AM,27.0,12.9,56,30.13,10.0,NNW,4.6,-,N/A,,Clear,340,2012-12-09 14:56:00
7:56 AM,34.0,16.0,48,30.14,10.0,Calm,Calm,-,N/A,,Clear,0,2012-12-09 15:56:00
8:56 AM,43.0,18.0,37,30.16,10.0,Calm,Calm,-,N/A,,Clear,0,2012-12-09 16:56:00
9:56 AM,48.9,19.9,32,30.16,10.0,SSW,3.5,-,N/A,,Clear,200,2012-12-09 17:56:00
10:56 AM,55.9,21.0,26,30.15,10.0,Calm,Calm,-,N/A,,Clear,0,2012-12-09 18:56:00
11:56 AM,61.0,21.0,21,30.11,10.0,Calm,Calm,-,N/A,,Clear,0,2012-12-09 19:56:00
12:56 PM,64.0,19.9,18,30.10,10.0,NE,5.8,-,N/A,,Clear,50,2012-12-09 20:56:00
1:56 PM,66.0,19.0,17,30.09,10.0,NE,8.1,-,N/A,,Clear,50,2012-12-09 21:56:00
2:56 PM,66.9,19.0,16,30.09,10.0,NE,8.1,-,N/A,,Clear,50,2012-12-09 22:56:00
3:56 PM,64.9,19.9,18,30.12,10.0,ENE,8.1,-,N/A,,Clear,60,2012-12-09 23:56:00
4:56 PM,55.9,19.0,24,30.14,10.0,NE,5.8,-,N/A,,Clear,40,2012-12-10 00:56:00
5:56 PM,48.9,15.1,26,30.18,10.0,NNE,6.9,-,N/A,,Clear,20,2012-12-10 01:56:00
6:56 PM,46.0,14.0,28,30.20,10.0,North,6.9,-,N/A,,Clear,360,2012-12-10 02:56:00
7:56 PM,43.0,14.0,31,30.22,10.0,West,6.9,-,N/A,,Clear,260,2012-12-10 03:56:00
8:56 PM,39.9,14.0,35,30.23,10.0,NW,5.8,-,N/A,,Clear,310,2012-12-10 04:56:00
9:56 PM,39.9,14.0,35,30.24,10.0,NW,9.2,-,N/A,,Clear,320,2012-12-10 05:56:00
10:56 PM,37.0,15.1,41,30.25,10.0,West,5.8,-,N/A,,Clear,280,2012-12-10 06:56:00
11:56 PM,36.0,14.0,41,30.25,10.0,WNW,4.6,-,N/A,,Clear,290,2012-12-10 07:56:00